Theta_e
300 300 300 301 302 302 302 302 302 301 301 300 300 300 300 301 302 302 302 301 302 302 302 301 303 304 306 307 309 307 309 314 321 329 331 329 329 330 334 334 335 335 338 339 339 340 338 328 332 337 336 333 333 334
300 300 300 300 300 301 301 302 301 301 301 302 301 301 301 301 301 301 302 302 302 302 302 302 301 304 304 305 306 307 308 307 312 320 324 326 334 331 335 335 332 337 335 338 336 336 328 325 327 329 333 332 333 334
300 300 300 300 301 301 301 301 301 301 301 302 301 301 301 301 301 302 302 302 302 302 302 302 302 303 304 303 302 305 306 309 314 310 318 322 331 330 337 337 332 334 331 334 334 331 327 326 325 325 326 328 330 332
300 300 300 300 301 301 302 300 300 301 301 301 301 300 301 301 301 301 301 301 303 301 303 303 304 304 304 307 307 306 307 308 306 309 317 320 327 324 331 333 336 329 329 332 331 327 325 324 324 325 325 324 324 324
300 301 302 302 301 302 300 300 302 301 301 301 300 301 300 300 302 302 302 303 303 301 304 303 303 308 307 308 307 307 307 307 307 313 315 319 320 322 324 330 327 322 327 332 331 327 328 325 322 320 320 320 322 321
300 302 302 302 302 301 300 302 302 302 301 300 300 300 301 301 301 302 300 305 303 300 301 307 305 306 310 310 310 309 308 307 308 312 315 314 315 322 332 329 320 321 323 326 324 323 321 320 319 319 319 319 318 318
300 302 302 302 302 301 301 301 301 301 301 300 300 300 300 301 301 302 301 303 302 301 304 307 308 309 310 309 309 308 307 308 311 312 312 316 317 323 324 323 319 321 321 320 319 318 318 318 318 317 317 317 316 315
302 302 301 301 301 301 302 302 301 301 301 301 300 300 301 301 301 300 302 305 303 304 303 307 309 311 310 311 312 310 310 310 311 312 315 319 320 322 322 319 319 319 319 319 318 318 318 318 316 316 315 316 315 315
301 301 301 301 301 301 301 300 300 301 301 300 300 300 300 301 303 305 306 306 305 304 305 308 311 315 311 309 309 311 310 313 311 321 322 321 322 322 320 318 318 317 317 318 318 318 317 317 316 317 318 319 319 319
301 301 301 301 301 301 300 300 300 300 300 300 301 302 304 305 306 306 306 304 304 305 305 306 306 311 309 313 313 314 312 315 322 321 321 322 321 319 319 319 319 318 318 316 316 318 315 317 318 318 318 318 318 319
301 301 301 300 301 301 301 300 300 301 302 303 303 304 305 306 305 305 307 308 308 310 308 308 308 311 308 314 315 313 314 314 322 322 323 323 322 320 318 318 319 319 319 319 318 319 320 320 320 319 318 319 320 320
300 300 300 301 301 301 301 301 302 302 302 303 303 304 305 306 306 307 308 308 310 312 311 311 311 309 309 310 314 315 316 315 321 320 323 323 321 319 319 319 318 318 320 320 320 318 317 317 318 318 318 319 319 319
300 300 301 301 301 301 302 302 302 303 303 303 303 303 304 305 308 310 314 313 313 312 312 311 312 310 313 310 314 316 317 320 318 323 322 322 320 318 318 318 317 317 317 318 318 317 316 317 315 316 317 317 317 318
300 301 301 301 301 302 302 302 303 304 303 304 305 307 308 309 309 311 311 311 311 311 311 310 311 313 313 314 316 318 317 319 321 322 319 320 318 317 317 316 316 315 315 315 314 314 314 314 314 315 317 318 317 317
301 301 302 302 302 302 303 304 304 304 305 304 302 306 306 307 309 310 310 310 310 309 310 312 313 312 314 316 317 317 319 321 321 321 318 318 317 317 317 316 316 315 315 314 314 314 314 314 314 315 315 318 318 318
301 302 302 303 303 304 305 305 305 305 305 306 308 309 308 309 310 309 310 310 309 310 311 311 313 313 313 317 318 319 319 317 320 318 317 317 316 316 316 315 315 315 315 315 315 314 314 314 314 314 315 316 319 319
301 302 303 304 304 303 305 306 306 306 307 308 309 308 308 308 309 309 309 309 309 311 313 314 315 314 314 317 318 318 315 315 316 316 316 316 316 315 315 315 316 315 315 315 315 314 314 314 313 314 314 314 315 317
301 302 303 303 303 304 305 306 306 307 308 308 308 307 307 308 308 308 307 308 309 310 312 314 313 315 317 317 316 314 314 314 314 315 316 316 315 315 315 315 316 315 315 315 315 314 314 314 314 313 314 313 313 313
302 302 303 303 303 304 305 306 306 307 307 307 306 306 308 308 309 308 308 308 309 309 310 313 314 314 314 313 314 314 314 315 315 314 315 315 315 315 315 315 315 315 315 315 315 315 315 314 311 312 313 312 312 312
303 303 304 304 304 304 304 305 306 306 307 306 306 306 307 308 309 307 308 308 309 311 313 314 313 313 313 312 312 312 312 312 314 315 314 315 315 315 315 315 315 315 315 314 313 313 310 310 311 311 312 312 312 311
304 305 305 304 304 304 305 305 305 306 306 306 306 307 308 307 308 307 308 309 310 309 312 312 312 311 310 310 310 310 311 313 314 315 315 315 315 312 312 312 311 310 310 309 308 308 309 309 309 310 311 311 311 311
305 306 305 304 304 304 305 305 305 306 305 306 307 306 307 307 308 308 308 309 310 310 310 311 313 313 314 315 314 314 314 315 315 315 315 315 313 311 312 309 307 307 307 306 305 305 305 305 305 306 306 306 306 306
307 306 305 305 305 305 305 305 306 306 307 307 306 307 307 308 309 309 310 311 311 314 314 314 314 314 315 314 314 314 314 315 315 314 315 314 314 310 307 306 305 305 304 304 304 304 303 303 302 302 303 304 304 305
307 307 307 306 306 306 307 307 307 307 307 307 307 307 307 307 310 312 312 313 313 314 314 314 314 314 312 312 312 311 311 309 309 309 312 313 309 306 305 304 304 303 303 303 302 301 301 301 301 302 303 303 305 306
307 306 307 304 305 306 308 309 308 309 311 310 310 312 311 309 314 316 316 315 314 314 314 313 310 308 308 308 307 306 306 306 306 307 306 307 307 305 304 303 303 302 302 301 300 300 301 301 301 301 302 303 304 303
307 308 306 308 308 308 310 312 312 311 311 312 312 311 310 313 316 315 316 314 314 312 310 308 308 307 306 306 306 305 304 304 303 305 305 305 305 304 304 303 303 302 300 299 299 300 300 301 301 301 300 301 301 301
311 313 312 310 308 308 310 310 311 311 313 315 314 314 315 316 316 315 313 312 313 309 307 307 306 306 305 305 305 304 303 302 302 303 304 304 303 303 302 301 301 300 299 298 299 299 300 301 301 300 300 300 300 300
311 311 314 314 310 309 313 314 315 316 315 314 313 315 316 316 313 309 307 308 306 306 306 305 305 305 304 304 303 302 301 301 301 301 301 301 300 300 300 300 299 299 299 299 299 300 300 299 299 299 299 299 299 300
312 314 313 315 312 313 314 314 312 311 312 313 314 314 312 307 305 305 304 305 305 306 306 305 304 304 303 301 301 300 299 299 299 299 299 299 299 299 297 298 298 299 299 299 298 298 298 298 298 297 296 296 296 297
316 315 315 315 315 317 316 314 313 313 312 311 308 307 308 309 308 306 305 306 307 304 303 303 302 302 300 299 299 298 297 297 297 297 297 297 297 297 297 297 297 297 297 296 295 295 295 294 293 293 293 292 292 292
317 317 317 316 317 314 315 316 312 312 311 309 309 310 310 309 308 308 309 309 308 306 306 304 301 299 298 296 295 295 295 294 294 294 295 295 295 295 294 294 294 293 293 292 292 291 291 291 291 290 290 290 289 289
316 317 318 318 318 317 317 314 314 315 314 310 309 308 308 309 309 308 308 308 303 301 300 299 298 297 296 294 293 293 293 293 293 293 292 292 291 291 291 291 290 290 290 290 289 289 289 289 288 288 288 288 288 288
315 317 317 318 318 318 316 316 317 315 314 312 313 313 310 310 310 309 309 306 300 299 299 297 296 295 293 293 292 291 291 291 291 290 290 290 289 289 288 288 288 288 288 288 288 288 288 288 288 288 288 288 288 288
Wind_Speed
27 27 28 25 24 23 23 21 20 18 15 15 15 15 14 14 14 15 18 15 19 9 28 29 27 22 16 11 4 12 10 2 3 3 4 3 3 2 4 8 9 7 8 4 3 6 6 26 14 5 5 9 20 27
27 28 28 26 24 23 22 19 17 16 16 15 14 15 16 15 13 12 17 16 16 20 19 23 27 24 27 27 13 6 7 10 4 3 2 3 2 2 1 7 5 6 6 7 9 3 16 16 11 3 12 19 18 29
30 28 27 26 23 19 17 14 13 15 14 12 13 12 12 12 10 10 14 12 14 15 28 27 26 12 18 29 32 15 11 6 3 5 3 3 4 2 2 2 6 4 8 5 6 5 9 9 13 17 18 18 16 20
28 27 28 24 20 18 13 11 12 14 11 13 12 10 9 7 8 12 13 12 14 7 5 8 9 18 10 9 19 30 14 7 5 8 3 3 3 1 0 2 2 4 2 10 4 12 7 9 10 12 18 20 26 27
27 26 23 20 15 13 8 8 9 9 10 12 6 7 6 9 7 8 12 16 13 7 5 15 29 4 3 14 19 25 26 24 9 4 2 3 3 3 2 2 3 7 2 3 7 9 5 7 13 21 27 22 20 28
23 21 20 15 11 8 4 6 9 10 10 5 4 3 5 9 8 7 4 2 11 14 5 4 9 5 6 2 12 14 16 13 5 5 6 5 1 3 2 3 7 12 5 10 2 19 21 13 12 17 25 21 22 25
18 19 16 15 9 5 5 8 10 8 5 2 4 6 6 9 8 5 4 8 7 7 4 5 5 5 4 4 9 9 14 8 8 4 4 3 3 4 3 4 16 10 10 20 20 30 19 16 12 19 21 17 17 21
19 15 12 11 9 10 9 6 7 6 4 4 3 6 9 10 10 4 2 4 15 7 4 3 4 6 1 3 5 9 9 7 2 3 1 3 4 5 4 10 12 10 21 28 24 26 22 19 22 18 14 11 13 14
17 15 12 12 11 11 9 10 8 6 6 6 5 8 5 1 1 3 9 3 12 6 5 2 3 3 7 0 3 4 6 4 4 0 3 3 3 5 3 10 15 15 13 14 20 19 18 18 13 15 13 12 14 16
18 17 15 15 14 13 10 9 8 7 6 6 5 3 2 4 6 5 2 1 3 4 4 3 4 4 4 3 2 3 1 2 2 3 4 3 4 11 15 14 15 12 15 15 14 11 15 11 13 10 12 14 14 13
17 13 12 13 13 11 10 10 9 9 7 6 6 3 4 5 3 2 2 2 2 3 5 6 5 4 3 2 2 2 2 1 3 3 1 2 3 4 5 8 12 12 14 12 12 10 10 8 6 8 11 11 11 10
17 16 14 12 12 11 13 15 11 11 12 8 6 6 5 4 2 2 2 2 3 3 2 3 5 5 6 4 2 2 2 1 4 1 3 3 3 7 8 5 7 9 10 12 11 10 11 11 10 8 8 9 10 9
17 15 13 12 11 11 12 14 18 18 8 5 4 4 4 4 4 4 6 2 3 5 5 10 4 4 4 3 3 2 4 4 1 4 3 3 6 7 8 9 13 15 13 10 9 9 12 13 15 16 15 13 13 11
14 15 14 12 13 16 17 20 19 13 5 4 5 4 4 3 4 2 4 5 7 8 13 10 5 5 4 3 3 4 4 2 3 3 1 2 7 8 7 10 10 10 10 10 12 14 17 18 18 16 16 14 14 10
13 13 14 16 19 21 19 16 13 10 6 5 4 4 4 6 7 10 9 7 9 14 9 1 2 4 3 3 5 4 4 5 4 3 1 8 6 5 8 9 9 10 11 12 14 15 14 13 15 18 16 15 13 11
10 12 19 21 21 19 16 9 9 7 4 5 7 3 10 4 9 13 17 21 22 14 5 3 2 3 5 3 4 6 3 3 3 3 5 5 5 7 9 11 12 12 13 11 11 10 8 10 13 11 12 13 13 8
13 17 23 24 21 13 16 10 6 5 4 4 4 7 11 4 6 11 12 18 18 7 3 3 5 3 2 3 3 4 3 3 7 6 5 6 8 8 7 8 10 9 9 9 9 7 8 11 15 10 7 8 10 11
16 18 21 24 23 11 12 10 5 5 5 4 5 16 13 10 11 12 17 25 13 8 5 3 2 5 4 3 3 3 6 4 5 5 6 7 8 7 7 8 7 8 9 9 9 7 7 9 8 11 6 8 10 10
18 19 21 22 20 10 7 7 5 3 3 6 11 16 9 12 17 20 19 19 11 10 4 4 5 4 4 4 5 6 6 7 7 5 6 7 8 8 7 6 6 7 7 7 7 7 6 5 5 5 6 6 5 8
15 14 19 16 14 6 4 5 6 4 5 7 11 15 7 9 15 19 19 18 14 6 8 5 4 3 3 5 6 6 7 7 9 6 6 8 9 8 8 5 4 5 5 5 3 5 4 2 3 4 6 6 8 10
13 16 15 12 7 8 5 6 4 5 6 5 13 12 6 11 10 15 15 16 10 6 5 5 5 6 7 8 8 6 6 6 6 6 4 5 5 8 9 6 7 8 8 10 11 11 10 11 9 8 8 8 8 8
14 15 10 8 6 5 4 9 6 7 4 7 8 10 6 7 9 10 14 8 5 5 5 6 8 7 7 7 6 6 5 5 4 3 4 6 9 9 6 5 7 9 11 12 13 14 14 14 13 13 13 13 12 11
11 9 6 6 4 6 3 8 5 7 5 11 7 4 4 6 9 11 4 8 6 9 10 11 11 11 11 11 8 6 7 6 6 6 5 3 5 5 1 4 7 9 10 13 15 16 17 16 15 14 12 11 12 11
5 5 5 5 6 3 5 3 3 4 4 3 3 3 4 6 10 4 2 2 8 13 13 12 13 9 12 18 22 21 18 17 17 16 11 7 1 2 1 5 7 8 11 14 16 17 15 12 11 10 11 11 10 9
3 4 4 5 4 3 4 4 3 2 2 3 3 2 3 5 4 4 3 8 10 8 8 10 14 20 20 18 20 21 19 18 17 13 11 6 4 3 6 5 6 8 13 16 16 17 14 11 11 12 12 10 9 9
3 3 2 2 1 1 2 3 2 2 1 2 1 1 2 1 2 3 4 10 11 13 13 14 16 19 21 20 19 20 21 18 16 11 12 11 8 7 6 6 8 9 16 18 17 17 14 12 12 13 12 11 12 12
3 3 3 4 3 3 4 3 3 2 1 0 1 0 2 3 5 5 9 12 9 13 18 18 17 17 16 16 18 21 21 18 14 13 12 10 8 7 8 10 11 15 18 18 19 17 12 12 13 14 14 14 14 15
2 2 3 5 3 2 3 3 2 1 0 2 2 1 2 4 4 8 9 15 18 17 17 17 17 17 18 19 21 22 22 19 12 10 9 9 12 13 13 14 17 19 21 20 17 13 12 12 12 12 12 12 12 13
3 5 4 4 3 4 3 2 2 1 1 2 2 4 4 6 9 13 16 17 17 16 15 14 16 18 21 22 24 23 21 20 17 15 14 14 15 14 18 18 19 16 12 12 12 12 13 14 15 15 13 12 12 11
3 7 4 4 2 1 2 3 4 5 6 7 12 19 19 16 19 20 20 19 17 18 16 17 19 22 22 20 18 17 17 19 19 17 16 17 16 16 17 16 14 13 12 12 11 11 14 13 13 13 13 13 13 13
7 4 3 3 3 3 3 8 12 13 15 23 21 19 14 6 13 23 21 18 17 18 10 13 17 20 23 24 24 20 17 18 18 15 13 12 13 14 16 17 17 14 13 12 12 13 15 15 14 14 14 14 14 14
6 3 4 3 3 8 6 6 7 12 11 20 16 8 5 5 4 2 8 14 13 12 14 17 18 20 22 22 18 16 16 15 15 15 15 16 16 15 15 14 13 13 14 14 14 14 14 13 12 13 13 13 14 14
5 7 6 4 4 4 8 2 5 5 6 3 2 4 3 1 1 1 5 9 10 11 14 17 18 18 21 20 17 15 13 13 13 15 16 18 19 19 16 15 14 13 13 13 13 13 13 14 14 14 14 14 14 14
Wind_Direction
319 317 311 309 306 305 306 302 297 307 294 298 295 290 289 278 268 248 252 252 251 261 272 265 259 267 274 278 289 324 322 48 300 241 241 166 221 209 205 167 166 157 144 129 305 251 248 355 321 258 50 104 131 110
326 324 319 309 304 300 300 299 298 294 302 290 298 297 274 270 255 253 255 260 266 251 263 272 271 260 252 251 259 251 296 301 284 309 352 286 255 262 270 177 198 157 158 142 199 274 323 339 291 5 107 94 90 104
319 319 322 317 310 304 301 294 300 300 302 287 300 297 276 273 265 258 263 257 259 269 285 267 265 282 262 247 249 239 269 207 217 357 294 277 268 257 195 137 161 59 153 132 131 99 288 4 54 70 79 78 78 88
328 320 321 318 309 311 300 287 301 307 299 299 300 292 297 296 283 264 259 269 260 269 278 294 304 296 285 225 224 221 214 167 326 337 256 259 258 238 209 26 67 31 312 141 95 139 157 72 68 73 83 83 82 79
328 330 328 322 314 315 307 307 318 315 313 314 291 304 308 279 288 274 277 267 260 236 299 294 309 344 333 226 225 219 227 237 296 7 268 254 284 250 112 111 41 344 348 192 165 135 112 136 122 96 83 74 75 84
336 340 340 335 320 327 315 319 320 316 323 312 315 278 295 304 305 309 297 285 226 220 276 296 309 314 351 255 196 196 196 204 221 182 244 259 324 295 65 80 7 357 352 239 32 130 108 117 93 87 92 86 81 76
346 345 351 360 6 357 332 317 328 328 323 337 329 305 300 305 300 299 290 359 172 192 260 292 292 286 339 125 164 177 180 201 205 222 247 315 7 55 50 49 338 16 70 95 108 113 89 78 72 75 72 67 67 63
355 355 357 2 14 5 359 0 342 339 340 327 294 271 289 299 308 325 341 261 203 267 277 286 280 300 344 190 170 174 160 180 267 279 221 8 28 59 58 3 12 50 74 82 84 91 93 92 82 74 71 64 64 56
10 19 29 29 27 27 21 10 351 358 353 334 315 310 311 347 85 306 345 181 216 232 300 272 293 324 337 289 153 166 171 151 187 87 46 54 49 57 1 8 24 41 78 81 66 66 66 63 80 73 68 63 59 51
30 38 44 37 32 26 24 25 26 1 352 357 357 357 349 347 328 340 10 176 184 223 237 259 275 280 326 329 140 160 179 115 105 61 103 63 69 76 37 56 68 71 81 87 77 59 50 42 52 67 36 35 39 32
28 27 26 25 14 20 37 28 15 7 11 3 355 342 330 333 335 304 294 259 213 237 214 249 257 290 305 318 6 30 122 127 95 96 84 78 64 73 109 34 71 88 104 123 126 134 109 98 77 61 55 46 44 45
28 26 24 21 12 25 20 10 15 357 346 338 323 321 335 349 329 298 282 265 243 312 279 268 304 265 307 320 305 20 52 61 81 86 74 82 76 64 98 92 74 89 95 90 88 82 74 67 63 59 56 55 52 46
24 19 14 13 15 8 14 11 356 352 350 348 349 335 354 350 27 17 359 6 337 348 326 329 319 321 333 353 303 339 52 53 100 51 55 72 86 70 102 94 72 71 74 83 79 72 66 58 44 39 38 35 31 30
16 15 30 32 15 2 355 351 355 6 18 22 356 13 6 27 13 309 319 309 301 295 315 309 293 20 352 349 337 46 30 270 72 80 57 91 93 83 70 83 71 63 63 60 54 47 44 39 35 30 27 26 26 33
29 32 23 9 357 349 347 354 4 14 37 40 15 27 14 309 305 304 310 331 338 324 328 266 71 318 337 43 12 4 42 44 25 80 101 85 102 94 79 68 64 61 55 48 40 34 32 29 28 27 23 21 20 25
28 12 5 2 360 1 4 10 19 32 42 30 27 340 339 310 1 14 10 5 357 346 359 28 56 54 27 20 42 9 60 16 30 56 68 75 81 70 62 54 43 39 37 35 25 15 14 17 10 9 14 19 20 19
10 0 359 1 0 358 13 25 24 48 41 25 355 339 341 314 331 352 352 347 358 355 18 355 47 24 288 44 43 21 64 309 21 44 54 78 63 60 56 46 36 28 24 25 20 32 34 24 26 16 16 16 23 19
356 355 355 357 359 1 13 23 32 39 23 5 351 351 351 357 349 358 355 2 10 9 13 47 20 35 44 42 39 34 48 35 27 47 57 52 56 44 36 31 23 14 13 15 11 21 21 2 7 3 6 14 6 1
343 344 350 351 355 358 14 25 26 32 358 351 347 355 350 -0 4 3 4 14 28 35 51 42 50 34 46 41 48 44 30 29 18 44 74 60 40 37 29 21 9 355 1 360 360 342 325 337 24 5 351 350 353 348
335 334 340 348 360 9 19 22 14 354 5 334 349 343 343 350 357 9 20 28 40 49 42 46 47 55 59 43 33 30 26 21 34 74 84 57 36 5 353 344 324 325 344 336 354 7 30 32 6 334 330 326 325 329
345 345 346 357 16 32 40 9 5 351 333 336 346 352 335 357 7 8 6 25 43 35 52 44 30 14 356 348 350 2 16 31 40 63 64 78 7 24 28 37 53 69 65 54 47 39 32 28 17 4 351 335 326 316
342 351 351 12 27 25 41 7 332 332 337 327 349 357 12 360 353 1 352 25 38 16 8 349 356 10 29 31 37 55 46 24 19 31 40 51 40 23 16 57 56 48 41 32 20 11 359 348 338 329 322 316 313 313
343 354 3 8 7 25 9 6 9 8 360 353 6 23 358 352 351 359 23 5 4 29 31 39 43 53 51 33 20 4 354 359 1 338 311 272 251 234 146 52 39 24 16 8 3 354 343 335 330 331 334 335 331 330
6 7 8 26 36 6 330 353 15 10 11 18 17 4 352 331 355 43 12 10 64 34 55 39 28 48 59 60 53 51 50 43 34 24 14 359 91 180 25 10 6 5 6 0 356 350 344 342 348 348 346 345 346 352
18 17 12 10 32 8 326 356 9 26 22 332 18 40 356 347 2 30 30 9 30 30 32 42 68 71 62 54 48 39 28 21 13 7 6 2 311 339 347 354 356 352 353 354 351 349 345 343 342 341 341 343 345 343
51 4 49 356 13 330 334 324 359 4 329 342 357 334 326 321 122 27 27 23 45 59 65 84 73 66 56 47 37 27 16 7 359 355 348 340 324 325 334 342 343 340 341 341 340 335 331 329 331 334 329 324 324 323
27 17 331 321 290 294 272 245 262 267 280 324 178 292 342 20 50 37 25 23 51 73 81 76 64 57 50 38 28 22 17 12 4 357 358 1 353 339 330 328 327 324 328 330 331 325 315 317 321 324 321 316 310 306
310 303 305 320 280 243 284 290 256 255 188 164 169 38 51 32 29 0 34 83 100 91 74 63 52 39 28 20 16 12 12 15 12 3 0 2 356 347 334 327 325 324 326 324 323 318 317 323 327 330 330 328 323 319
285 310 309 277 244 229 238 260 309 328 143 124 68 45 56 42 51 86 88 82 71 63 52 38 29 23 22 19 11 6 2 3 7 8 3 351 345 340 334 327 325 327 328 330 326 320 321 321 320 321 326 327 326 325
325 330 288 277 265 270 63 18 26 84 103 117 106 106 95 78 62 67 65 61 52 46 33 20 12 10 12 7 4 4 1 360 1 359 348 344 340 343 346 350 352 350 345 344 343 341 331 336 335 335 336 334 330 328
322 324 288 270 284 351 347 16 92 87 83 85 99 104 98 80 31 37 36 26 6 7 9 356 360 5 4 359 358 356 354 357 1 3 5 0 352 347 343 340 339 341 342 345 344 340 337 335 332 333 333 335 336 339
329 340 326 310 334 356 25 102 105 118 71 68 76 71 40 1 330 11 12 0 3 10 8 6 3 360 357 355 354 355 358 357 359 358 352 352 352 348 344 341 341 341 339 338 338 339 343 347 347 348 347 345 343 341
330 354 356 313 313 3 6 42 112 104 83 78 68 82 96 137 38 320 317 336 357 3 5 3 358 353 354 1 8 12 12 5 355 346 343 340 338 338 344 348 352 353 354 356 358 357 357 355 353 349 348 346 345 343